Warsaw, IN

8:57 AM EDT on May 27, 2018 (GMT -0400)
Warsaw Municipal

Weather History for KASW - December, 2011

Change the Weather History Date:

Friday, December 30, 2011

  Actual Average Record
Temperature  
Mean Temperature 38 °F -  
Max Temperature 44 °F 32 °F 57 °F (1992)
Min Temperature 33 °F 17 °F -10 °F (1983)
Degree Days  
Heating Degree Days 26    
Moisture  
Dew Point 38 °F    
Average Humidity 94    
Maximum Humidity 100    
Minimum Humidity 87    
Precipitation  
Precipitation 0.24 in - - ()
Sea Level Pressure  
Sea Level Pressure 29.63 in    
Wind  
Wind Speed 4 mph (South)    
Max Wind Speed 14 mph    
Max Gust Speed 21 mph    
Visibility 8 miles    
Events Rain    
Averages and records for this station are not official NWS values.
T = Trace of Precipitation, MM = Missing Value Source: NWS Daily Summary

Daily Weather History Graph

Daily Weather History Graph

Search for Another Location

Airport or City:

Astronomy

Dec. 30, 2011 Rise Set
Actual Time 8:08 AM EST 5:22 PM EST
Civil Twilight 7:37 AM EST 5:54 PM EST
Nautical Twilight 7:02 AM EST 6:28 PM EST
Astronomical Twilight 6:29 AM EST 7:02 PM EST
Moon 11:23 AM EST (12/30) No Moon Set
Length of Visible Light 10h 16m
Length of Day
9h 14m
Waxing Crescent, 35% of the Moon is Illuminated
Dec 30
Waxing Crescent
Jan 1
First Quarter
Jan 9
Full
Jan 16
Last Quarter
Jan 23
New

Hourly Weather History & Observations

Time (EST) Temp. Windchill Dew Point Humidity Pressure Visibility Wind Dir Wind Speed Gust Speed Precip Events Conditions
12:15 AM 35.6 °F 32.8 °F 33.8 °F 93% 29.75 in 10.0 mi SW 3.5 mph - N/A   Clear
12:35 AM 35.6 °F - 33.8 °F 93% 29.73 in 10.0 mi Calm Calm - N/A   Clear
12:55 AM 35.6 °F - 33.8 °F 93% 29.73 in 10.0 mi Calm Calm - N/A   Clear
1:15 AM 33.8 °F - 32.0 °F 93% 29.73 in 10.0 mi Calm Calm - N/A   Clear
1:35 AM 35.6 °F - 33.8 °F 93% 29.74 in 10.0 mi Calm Calm - N/A   Clear
1:55 AM 35.6 °F - 33.8 °F 93% 29.74 in 10.0 mi Calm Calm - N/A   Clear
2:15 AM 35.6 °F - 33.8 °F 93% 29.74 in 10.0 mi Calm Calm - N/A   Clear
2:35 AM 35.6 °F - 33.8 °F 93% 29.74 in 10.0 mi Calm Calm - N/A   Clear
2:55 AM 33.8 °F - 32.0 °F 93% 29.75 in 10.0 mi Calm Calm - N/A   Clear
3:15 AM 33.8 °F - 32.0 °F 93% 29.74 in 10.0 mi Calm Calm - N/A   Clear
3:55 AM 33.8 °F - 33.8 °F 100% 29.75 in 10.0 mi Calm Calm - N/A   Mostly Cloudy
4:15 AM 35.6 °F - 33.8 °F 93% 29.75 in 10.0 mi Calm Calm - N/A   Overcast
4:35 AM 35.6 °F - 33.8 °F 93% 29.75 in 10.0 mi Calm Calm - N/A   Overcast
4:55 AM 35.6 °F 32.8 °F 33.8 °F 93% 29.73 in 10.0 mi East 3.5 mph - N/A   Drizzle
5:15 AM 35.6 °F - 33.8 °F 93% 29.73 in 7.0 mi Calm Calm - N/A   Overcast
5:35 AM 35.6 °F 32.8 °F 33.8 °F 93% 29.73 in 7.0 mi SSE 3.5 mph - N/A   Overcast
6:35 AM 35.6 °F 32.8 °F 35.6 °F 100% 29.72 in 10.0 mi SE 3.5 mph - N/A   Drizzle
6:55 AM 35.6 °F 30.7 °F 35.6 °F 100% 29.71 in 10.0 mi ESE 5.8 mph - N/A   Light Drizzle
7:15 AM 37.4 °F 32.8 °F 35.6 °F 93% 29.70 in 10.0 mi SE 5.8 mph - N/A   Overcast
7:35 AM 37.4 °F 32.8 °F 35.6 °F 93% 29.70 in 10.0 mi SE 5.8 mph - N/A   Overcast
7:55 AM 37.4 °F 34.9 °F 35.6 °F 93% 29.70 in 10.0 mi SE 3.5 mph - N/A Rain Light Rain
8:15 AM 37.4 °F 33.8 °F 35.6 °F 93% 29.70 in 7.0 mi SE 4.6 mph - 0.01 in Rain Rain
8:35 AM 37.4 °F 32.8 °F 35.6 °F 93% 29.68 in 5.0 mi ESE 5.8 mph - 0.03 in Rain Light Rain
8:55 AM 37.4 °F 31.4 °F 37.4 °F 100% 29.67 in 5.0 mi SE 8.1 mph - 0.05 in Rain Light Rain
9:15 AM 37.4 °F 32.1 °F 37.4 °F 100% 29.67 in 5.0 mi SE 6.9 mph - 0.01 in Rain Rain
9:35 AM 39.2 °F 33.6 °F 37.4 °F 93% 29.66 in 7.0 mi SE 8.1 mph - 0.01 in   Overcast
9:55 AM 39.2 °F 33.6 °F 37.4 °F 93% 29.65 in 5.0 mi SE 8.1 mph - 0.01 in   Overcast
10:55 AM 41.0 °F 35.8 °F 41.0 °F 100% 29.62 in 5.0 mi SE 8.1 mph - N/A   Overcast
11:15 AM 42.8 °F 39.3 °F 41.0 °F 93% 29.61 in 5.0 mi SSE 5.8 mph - N/A   Overcast
11:35 AM 42.8 °F 41.1 °F 41.0 °F 93% 29.59 in 5.0 mi South 3.5 mph - N/A   Overcast
11:55 AM 42.8 °F 38.6 °F 42.8 °F 100% 29.58 in 5.0 mi SSE 6.9 mph - N/A   Overcast
12:15 PM 44.6 °F 41.4 °F 42.8 °F 93% 29.55 in 5.0 mi SSE 5.8 mph - N/A   Overcast
12:35 PM 44.6 °F 42.2 °F 42.8 °F 93% 29.53 in 5.0 mi SSE 4.6 mph - N/A   Light Drizzle
12:55 PM 44.6 °F 40.7 °F 42.8 °F 93% 29.52 in 5.0 mi SE 6.9 mph - N/A   Overcast
1:15 PM 44.6 °F 39.2 °F 42.8 °F 93% 29.50 in 5.0 mi SSE 10.4 mph 17.3 mph N/A   Overcast
1:55 PM 44.6 °F 40.7 °F 42.8 °F 93% 29.48 in 4.0 mi SSE 6.9 mph - 0.02 in Rain Rain
2:35 PM 44.6 °F 42.2 °F 42.8 °F 93% 29.47 in 3.0 mi SSE 4.6 mph - 0.09 in Rain Heavy Rain
2:55 PM 44.6 °F - 42.8 °F 93% 29.47 in 4.0 mi Calm Calm - 0.12 in Rain Rain
3:35 PM 44.6 °F 41.4 °F 42.8 °F 93% 29.47 in 5.0 mi SSW 5.8 mph - 0.03 in Rain Light Rain
4:15 PM 44.6 °F 40.2 °F 42.8 °F 93% 29.49 in 10.0 mi SW 8.1 mph - N/A   Overcast
4:35 PM 44.6 °F 40.2 °F 42.8 °F 93% 29.50 in 10.0 mi WSW 8.1 mph - N/A   Overcast
4:55 PM 42.8 °F 37.0 °F 41.0 °F 93% 29.52 in 7.0 mi WSW 10.4 mph 20.7 mph N/A Rain Light Rain
5:15 PM 42.8 °F 38.0 °F 41.0 °F 93% 29.53 in 2.0 mi WSW 8.1 mph - N/A Rain Rain
5:35 PM 42.8 °F 40.1 °F 41.0 °F 93% 29.53 in 4.0 mi SW 4.6 mph - 0.01 in Rain Light Rain
6:15 PM 42.8 °F 37.0 °F 42.8 °F 100% 29.55 in 5.0 mi SW 10.4 mph 18.4 mph N/A Rain Light Rain
6:35 PM 42.8 °F 35.8 °F 41.0 °F 93% 29.55 in 10.0 mi WSW 13.8 mph 19.6 mph N/A Rain Light Rain
6:55 PM 42.8 °F 37.5 °F 41.0 °F 93% 29.56 in 10.0 mi WSW 9.2 mph - N/A   Light Drizzle
7:15 PM 42.8 °F 36.2 °F 41.0 °F 93% 29.57 in 7.0 mi WSW 12.7 mph 17.3 mph N/A   Unknown
7:35 PM 42.8 °F 36.6 °F 41.0 °F 93% 29.58 in 10.0 mi WSW 11.5 mph 17.3 mph N/A   Overcast
7:55 PM 41.0 °F 34.7 °F 39.2 °F 93% 29.59 in 10.0 mi WSW 10.4 mph 17.3 mph N/A   Overcast
8:15 PM 41.0 °F 35.8 °F 39.2 °F 93% 29.60 in 10.0 mi WSW 8.1 mph 12.7 mph N/A   Overcast
8:35 PM 41.0 °F 35.8 °F 39.2 °F 93% 29.61 in 10.0 mi WSW 8.1 mph - N/A   Overcast
8:55 PM 41.0 °F 34.3 °F 39.2 °F 93% 29.61 in 10.0 mi WSW 11.5 mph 17.3 mph N/A   Overcast
9:15 PM 41.0 °F 36.4 °F 39.2 °F 93% 29.62 in 10.0 mi WSW 6.9 mph - N/A   Overcast
9:35 PM 41.0 °F 35.2 °F 37.4 °F 87% 29.62 in 10.0 mi WSW 9.2 mph - N/A   Overcast
9:55 PM 41.0 °F 34.7 °F 37.4 °F 87% 29.63 in 10.0 mi WSW 10.4 mph - N/A   Overcast
10:15 PM 39.2 °F 33.0 °F 37.4 °F 93% 29.64 in 10.0 mi WSW 9.2 mph - N/A   Overcast
10:35 PM 39.2 °F 32.5 °F 37.4 °F 93% 29.65 in 7.0 mi WSW 10.4 mph - N/A Rain Light Rain
10:55 PM 39.2 °F 34.2 °F 37.4 °F 93% 29.65 in 4.0 mi WSW 6.9 mph 16.1 mph N/A Rain Light Rain
11:15 PM 37.4 °F 30.3 °F 37.4 °F 100% 29.66 in 3.0 mi WSW 10.4 mph - N/A   Overcast
11:35 PM 37.4 °F 30.8 °F 37.4 °F 100% 29.66 in 7.0 mi WSW 9.2 mph - N/A   Overcast